User: anonymous   Login
Location: Unspecified
(0.0000°N, 0.0000°E)
Time: 12:10:28
(UTC+00:00)
Language:

Meteor 2-19 - Orbit

View from above orbital plane
View from above orbital plane
View from above satellite
View from above satellite

Ground track
Ground track

The orbit data is extracted from the following two-line orbital elements,

1 20670U 90057A   18175.94741772 +.00000014 +00000-0 -66881-6 0  9990
2 20670 082.5473 076.1562 0015876 353.9987 006.0981 13.84677025414314
Epoch (UTC): 24 June 2018 22:44:16
Eccentricity: 0.0015876
inclination: 82.5473°
perigee height: 936 km
apogee height: 959 km
right ascension of ascending node: 76.1562°
argument of perigee: 353.9987°
revolutions per day: 13.84677025
mean anomaly at epoch: 6.0981°
orbit number at epoch: 41431

The dashed part of the orbit path shows where the satellite is in the earth's shadow,  

DLR